Location: Newark
(35.2672°N, 80.7344°W)
Time: 22:00:36
(UTC+00:00)

Tiros 1 - Pass Details

Date: 27 January 2020
Orbit: 631 x 664 km, 48.4° (Epoch: 19 February)

Event Time Altitude Azimuth Distance (km) Brightness Sun altitude
Rises 18:19:41 0° 271° (W) 2,930 10.7 35.3°
Reaches altitude 10° 18:22:23 10° 286° (WNW) 2,029 9.8 35.1°
Maximum altitude 18:26:12 24° 340° (NNW) 1,325 8.6 35.0°
Drops below altitude 10° 18:30:03 10° 35° (NE) 2,050 9.3 34.8°
Sets 18:32:47 0° 49° (NE) 2,969 10.1 34.6°
